STARLINK-2238, 48584

Orbit data source: Space-Track

STARLINK-2238, 48584 is a payload satellite owned by SpaceX/Seattle (US) in LEO that was launched on Sat, 15 May 2021 UTC via an FALCON 9 launch vehicle from the Air Force Eastern Test Range (AFETR). Payload-class satellites include a variety of spacecraft equipped with specific instruments for various scientific and technological missions. These include communications satellites like Starlink; space stations such as the ISS; scientific satellites like the Hubble; Earth observation satellites from companies like Planet Labs, Umbra, and HawkEye 360; GPS; miniature CubeSats for education and research; and military/defense satellites.

Loading next visibility...
Identifier
48584, 2021-041AH
Orbit
LEO
Country
Flag of USUS
Related business
Manufacturer
SpaceX/Seattle
Mission
Operational Commercial Communications
Bus & Motor
STARLINK, Unknown motor
Mass
260 kg wet, ~248 kg dry
Launch date (UTC)
2021-05-15 (5 years ago)
Launch vehicle
FALCON 9
Launch site
Air Force Eastern Test Range (AFETR)
Object type
Payload
Rocket body
Debris
Shape & HBR
Box + 1 Pan, 10.1 m
Radar Cross Section
13.562 m², Large (>1 m²)

Expand to show TLE details & history
Last TLE update: 8 hours ago

TLE from 8 hours ago
0 STARLINK-2238
1 48584U 21041AH  25346.95499206 -.00000218  00000-0  42551-5 0  9995
2 48584  53.0537 170.9836 0001304  90.2972 269.8167 15.06389835251987
Epoch: 2025-12-12T22:55Z
TLE epoch observation values (Epoch: 2025-12-12T22:55:11.313Z)
Latitude
Longitude
105.29727°
Altitude
548.125 km
Speed
7.589 km/s
True Right ascension
11h 23m 56s
True Declination
0° 00' 00"
Sunlit
Object was in daylight at epoch
Visualization orbit readout
Latitude
Unknown
Longitude
Unknown
Altitude
Unknown
Speed
Unknown
Apparent Right ascension
Unknown
Apparent Declination
Unknown
Sunlit
N/A
Visualization observer readout
Local Sidereal Time
05:27:21
Azimuth
Unknown
Elevation
Unknown
Doppler factor
Unknown
Orbital elements
Apogee altitude
548.417 km
Perigee altitude
546.61 km
Semi-major axis
6,925.651 km
Eccentricity
0.00013
Inclination
53.0537°
RAAN
170.9836°
Arg. of periapsis
90.2972°
True anomaly
269.80176°
Mean anomaly
269.8167°
Eccentric anomaly
269.80923°
Mean motion
3.76576 °/min
Orbital period
95.6 mins
BSTAR
0.0000042551
Loading maneuver chart data...
Computing Atmospheric mass density...
Loading historical data...
Loading historical data...
Loading historical data...
Loading historical data...
Loading historical data...
Loading historical data...
Loading historical data...

Documentation

Showing up to 5 results
|